Central Park, NY

11:09 PM EDT on July 24, 2017 (GMT -0400)
Central Park

Weather History for KNYC - August, 2013

Change the Weather History Date:

Friday, August 23, 2013

  Actual Average Record
Temperature  
Mean Temperature 77 °F 74 °F  
Max Temperature 82 °F 82 °F 92 °F (1916)
Min Temperature 71 °F 67 °F 51 °F (1923)
Degree Days  
Heating Degree Days 0 0  
Month to date heating degree days 0 0  
Since 1 June heating degree days 9 19  
Since 1 July heating degree days 0 0  
Cooling Degree Days 12 10  
Month to date cooling degree days 210 246  
Year to date cooling degree days 998 882  
Since 1 June cooling degree days 919 813  
Growing Degree Days 26 (Base 50)    
Moisture  
Dew Point 58 °F    
Average Humidity 59    
Maximum Humidity 84    
Minimum Humidity 33    
Precipitation  
Precipitation 0.00 in 0.14 in 3.03 in (1930)
Month to date precipitation 2.37 3.42  
Year to date precipitation 34.53 32.22  
Snow  
Snow 0.00 in 0.00 in 0.00 in (2002)
Month to date snowfall 0.0 0.0  
Since 1 July snowfall 0.0 0.0  
Snow Depth 0.00 in    
Sea Level Pressure  
Sea Level Pressure 29.98 in    
Wind  
Wind Speed 6 mph (NNE)    
Max Wind Speed 13 mph    
Max Gust Speed 19 mph    
Visibility 9 miles    
Events      
T = Trace of Precipitation, MM = Missing Value Source: NWS Daily Summary

Daily Weather History Graph

Daily Weather History Graph

Search for Another Location

Airport or City:

Trip Planner

Search our weather history database for the weather conditions in past years. The results will help you decide how hot, cold, wet, or windy it might be!

Date:

Astronomy

Aug. 23, 2013 Rise Set
Actual Time 6:14 AM EDT 7:41 PM EDT
Civil Twilight 5:45 AM EDT 8:10 PM EDT
Nautical Twilight 5:10 AM EDT 8:45 PM EDT
Astronomical Twilight 4:34 AM EDT 9:21 PM EDT
Moon 8:57 PM EDT (8/23) 9:08 AM EDT (8/23)
Length of Visible Light 14h 25m
Length of Day
13h 27m
Waning Gibbous, 91% of the Moon is Illuminated
Aug 23
Waning Gibbous
Aug 28
Last Quarter
Sep 5
New
Sep 12
First Quarter
Sep 19
Full

Hourly Weather History & Observations

Time (EDT) Temp. Heat Index Dew Point Humidity Pressure Visibility Wind Dir Wind Speed Gust Speed Precip Events Conditions
12:51 AM 73.9 °F - 68.0 °F 82% 29.88 in 7.0 mi Variable 5.8 mph - N/A   Clear
1:51 AM 73.0 °F - 66.0 °F 79% 29.89 in 8.0 mi Calm Calm - N/A   Clear
2:51 AM 73.0 °F - 64.9 °F 76% 29.88 in 9.0 mi WNW 3.5 mph - N/A   Clear
3:51 AM 73.0 °F - 64.9 °F 76% 29.89 in 8.0 mi Variable 4.6 mph - N/A   Mostly Cloudy
4:51 AM 72.0 °F - 64.9 °F 78% 29.89 in 8.0 mi Calm Calm - N/A   Clear
5:51 AM 71.1 °F - 64.9 °F 81% 29.92 in 8.0 mi North 4.6 mph - N/A   Clear
6:51 AM 71.1 °F - 64.9 °F 81% 29.94 in 6.0 mi Calm Calm - N/A   Haze
7:51 AM 72.0 °F - 64.0 °F 76% 29.97 in 8.0 mi Variable 4.6 mph - N/A   Clear
8:51 AM 73.0 °F - 62.1 °F 68% 29.97 in 9.0 mi NNE 8.1 mph - N/A   Clear
9:51 AM 73.9 °F - 60.1 °F 62% 29.99 in 10.0 mi Variable 5.8 mph - N/A   Clear
10:51 AM 75.9 °F - 55.0 °F 48% 29.98 in 10.0 mi Variable 5.8 mph - N/A   Clear
11:51 AM 80.1 °F - 50.0 °F 35% 29.98 in 10.0 mi NNE 8.1 mph - N/A   Clear
12:51 PM 81.0 °F 80.5 °F 54.0 °F 39% 29.99 in 10.0 mi ENE 9.2 mph - N/A   Clear
1:51 PM 82.0 °F - 50.0 °F 33% 29.99 in 10.0 mi NNE 8.1 mph 16.1 mph N/A   Clear
2:51 PM 80.1 °F 80.0 °F 54.0 °F 40% 29.99 in 10.0 mi Variable 3.5 mph - N/A   Clear
3:51 PM 79.0 °F - 54.0 °F 42% 29.99 in 10.0 mi NE 9.2 mph 16.1 mph N/A   Clear
4:51 PM 79.0 °F - 54.0 °F 42% 29.99 in 10.0 mi Variable 6.9 mph - N/A   Clear
5:51 PM 78.1 °F - 55.0 °F 45% 29.99 in 10.0 mi Variable 6.9 mph - N/A   Clear
6:51 PM 78.1 °F - 53.1 °F 42% 30.01 in 10.0 mi NNE 8.1 mph - N/A   Clear
7:51 PM 75.9 °F - 53.1 °F 45% 30.03 in 10.0 mi NNE 5.8 mph - N/A   Clear
8:51 PM 75.0 °F - 54.0 °F 48% 30.06 in 10.0 mi Variable 4.6 mph - N/A   Clear
9:51 PM 73.9 °F - 52.0 °F 46% 30.08 in 10.0 mi NE 6.9 mph - N/A   Clear
10:51 PM 73.0 °F - 51.1 °F 46% 30.09 in 10.0 mi Variable 4.6 mph - N/A   Clear
11:51 PM 73.0 °F - 52.0 °F 48% 30.10 in 10.0 mi Variable 5.8 mph - N/A   Mostly Cloudy